GFSGBSN_prec_cthk_102.txt.gz
RH
58 54 57 54 48 51 50 53 54 55 55 58 68 75 97 98 97 91 78 79 82 77 79 83 97 94 94 90 81 62 49 37 33 29 27 25 24 24 25 24 24 24 24 22 21 20 19
53 55 52 47 54 69 66 63 60 48 48 52 59 72 88 97 97 90 79 73 78 80 71 88 96 96 96 95 87 68 58 49 39 33 30 29 27 26 27 28 26 27 25 23 19 18 18
50 52 58 64 71 92 90 74 60 54 57 59 59 62 83 96 92 82 70 67 75 85 68 86 95 94 91 98 91 82 67 53 44 39 36 33 31 28 27 27 27 27 24 22 21 21 21
46 50 60 71 87 97 95 88 77 62 61 59 60 59 66 86 85 76 61 60 70 84 73 96 90 96 97 98 91 82 75 59 49 43 38 35 32 30 30 29 27 28 28 27 21 24 26
45 54 59 72 79 88 97 97 88 66 60 67 59 71 73 83 79 66 58 61 75 82 84 97 92 97 99 96 89 85 78 64 51 44 40 37 34 35 33 32 30 32 33 34 31 33 36
43 51 54 50 56 61 92 98 87 65 61 70 65 78 92 83 68 68 57 65 82 81 96 97 97 95 96 94 91 86 78 71 56 48 44 41 40 42 40 35 34 33 38 40 43 41 40
36 38 34 32 45 54 66 73 63 62 70 61 66 68 77 70 60 69 80 76 85 98 96 96 93 96 93 89 88 82 73 66 60 52 51 48 47 43 37 39 37 39 44 48 44 45 46
29 31 31 30 38 48 54 60 57 57 56 55 52 56 64 56 59 69 80 87 98 98 98 99 97 94 91 85 82 79 74 65 58 56 51 50 51 43 44 44 43 45 50 48 45 46 51
28 33 31 31 36 44 55 60 57 53 53 54 52 44 53 64 71 82 94 87 96 96 96 98 98 95 88 82 81 78 71 62 57 56 54 53 47 45 44 45 46 47 51 49 52 52 57
28 31 31 31 34 42 47 55 57 56 61 68 74 61 65 69 70 84 92 97 93 88 93 98 97 94 85 78 78 71 67 64 59 58 57 52 47 45 45 45 45 53 46 52 60 70 75
26 28 33 26 30 38 44 50 53 57 65 70 79 83 85 82 82 94 96 93 91 84 90 97 95 87 84 81 72 68 63 59 58 55 53 50 48 49 50 48 48 51 54 62 67 76 80
24 25 33 25 27 31 40 46 51 55 61 73 82 82 85 84 87 91 91 91 84 75 93 95 91 88 82 80 72 64 63 56 53 52 50 50 48 49 48 51 56 57 65 69 73 74 81
22 30 31 33 27 30 35 37 43 53 64 71 78 81 84 86 85 83 80 78 76 84 90 90 89 83 75 71 66 64 57 53 52 51 52 47 48 49 55 64 65 71 76 77 73 78 79
24 28 33 36 39 39 39 39 41 45 52 62 69 72 73 77 69 68 69 67 75 78 79 79 80 74 65 65 57 55 55 56 51 50 56 59 53 56 63 68 75 77 80 88 87 86 85
39 22 29 31 37 40 42 45 45 44 46 49 57 62 63 66 64 61 58 70 76 73 71 70 67 64 65 61 57 52 56 59 61 60 66 68 66 61 68 70 74 77 82 82 87 83 90
38 33 22 28 30 33 35 38 42 44 44 44 48 52 52 50 50 53 59 63 63 59 55 56 57 55 53 56 56 61 65 64 67 69 70 75 81 67 68 73 72 72 74 82 83 90 87
26 39 29 21 26 28 30 31 33 37 38 39 41 43 47 44 44 46 56 60 57 56 56 56 54 56 56 59 60 69 70 67 69 72 72 75 76 61 60 61 57 62 64 71 79 86 93
28 27 39 28 20 23 25 26 27 30 32 37 35 42 38 36 37 46 54 57 58 57 56 57 56 55 58 59 65 69 69 66 65 65 67 65 62 60 50 46 46 51 54 58 70 69 79
38 27 28 38 27 20 21 23 23 25 27 28 31 34 33 32 47 50 51 51 53 52 52 52 54 56 57 60 61 63 59 55 56 59 58 58 58 56 36 36 40 43 47 49 55 61 65
52 34 25 27 35 29 19 18 20 21 23 25 28 34 34 37 43 46 48 49 49 50 50 51 52 51 51 53 55 54 51 50 52 52 52 51 51 48 45 34 38 42 43 45 52 59 55
58 46 33 23 25 33 32 18 17 18 19 21 24 34 37 42 42 44 46 47 48 49 49 48 49 53 54 51 49 47 45 42 43 44 47 48 48 45 41 37 38 37 37 41 47 48 50
54 56 46 33 22 23 30 34 17 15 18 21 24 28 31 35 37 39 43 46 46 46 46 46 48 48 47 47 45 43 40 39 38 37 40 44 46 44 41 34 38 39 36 36 39 42 46
49 54 52 48 34 23 21 28 33 20 16 20 24 27 27 29 32 34 36 36 39 42 42 43 43 43 41 39 38 37 36 35 36 38 38 42 46 47 44 36 37 38 32 32 33 37 40
40 53 54 52 47 34 24 23 29 27 27 21 23 25 25 28 30 31 31 30 30 31 35 35 37 37 36 35 34 33 34 36 37 39 42 43 45 49 50 40 39 25 29 29 33 34 37
40 43 54 54 52 45 33 25 25 27 25 30 25 22 22 25 28 29 30 30 30 29 29 27 28 29 29 31 32 31 31 31 35 38 41 44 46 47 50 53 32 24 29 31 33 29 30
47 48 50 56 54 50 42 31 25 26 25 25 30 33 25 25 23 24 29 31 33 32 31 28 28 29 29 29 29 29 27 28 28 30 36 42 46 49 52 53 35 21 30 32 32 32 25
48 49 50 53 58 53 48 39 27 25 26 24 25 29 39 38 24 24 26 29 31 33 35 33 33 33 34 35 35 36 36 31 34 32 33 40 44 51 54 57 41 28 31 32 34 22 28
57 56 53 54 60 58 52 48 36 27 25 24 24 25 27 36 38 39 34 26 27 31 34 32 35 33 36 36 38 38 40 38 39 34 33 35 41 46 49 54 47 28 31 31 25 24 26
65 62 60 58 59 64 59 53 47 36 27 26 24 25 27 28 32 39 42 44 39 32 31 33 34 36 40 43 45 47 47 46 43 42 34 38 34 34 36 33 28 30 30 29 29 29 29

GFSGBSN_prec_cthk_105.txt.gz
RH
34 39 47 61 79 87 88 76 65 55 47 49 48 53 59 82 94 97 92 73 74 89 81 86 99 96 97 90 78 56 43 35 31 27 25 24 22 22 23 23 22 22 22 21 19 18 18
36 49 52 69 76 87 98 92 78 58 47 48 52 57 53 72 92 98 94 79 69 82 88 77 98 97 96 97 89 66 48 38 33 30 28 26 25 24 24 26 24 25 24 21 18 18 18
45 52 49 58 57 73 98 95 85 63 58 57 56 57 60 84 96 97 89 79 68 91 88 91 98 93 93 95 88 77 60 48 39 34 31 29 28 26 26 27 26 25 22 21 20 21 22
33 35 35 44 38 49 79 93 84 72 68 68 60 56 60 82 91 86 84 70 65 95 82 93 98 93 98 97 89 81 68 56 47 39 35 33 30 28 29 28 26 27 25 23 22 25 26
28 32 36 40 39 53 73 74 71 67 75 76 65 79 64 81 79 73 70 59 79 89 82 95 98 94 96 91 90 83 74 62 52 43 39 36 33 32 31 29 29 31 28 31 28 29 31
29 34 35 38 44 51 64 67 63 58 70 71 72 84 73 69 66 71 56 74 85 89 98 94 91 92 95 96 89 81 77 68 57 49 42 37 35 37 37 35 33 31 35 36 36 32 34
28 34 35 37 43 51 56 63 52 53 50 55 68 79 56 55 71 87 92 95 98 97 95 98 94 90 96 93 84 76 69 64 57 51 49 44 43 42 40 38 35 38 42 44 36 37 40
26 34 36 36 40 50 56 54 55 45 44 46 54 56 50 58 75 89 93 93 97 97 98 98 92 94 94 87 83 74 66 62 59 60 55 50 50 44 44 43 43 45 47 46 39 39 44
23 30 35 40 41 43 55 54 57 55 56 57 56 68 68 72 83 86 92 98 98 95 96 99 97 96 90 84 82 76 69 65 62 58 53 50 47 44 45 46 46 46 49 47 47 48 48
19 28 30 33 37 44 50 64 68 72 69 69 71 61 70 81 90 89 95 97 91 88 92 98 96 88 83 78 78 74 70 66 59 58 54 51 48 46 46 46 45 51 44 50 55 61 63
25 24 26 28 30 36 49 59 64 71 78 79 83 80 82 88 88 91 91 92 90 81 85 96 93 83 81 74 70 68 63 58 57 55 50 48 49 49 51 49 48 47 50 58 60 68 70
31 30 30 33 32 32 38 48 55 64 71 74 75 80 83 84 84 84 90 84 75 71 90 94 88 84 79 73 68 60 58 52 51 49 48 49 49 49 48 50 52 55 63 65 68 70 73
24 29 32 37 40 38 38 40 43 49 57 61 66 71 74 78 78 76 81 72 70 80 90 88 84 75 66 67 60 57 54 49 50 47 50 47 48 50 52 58 64 68 69 72 68 73 69
27 25 29 30 34 37 37 40 42 44 47 55 60 61 63 64 67 67 64 60 72 82 82 80 73 64 65 62 54 52 51 52 46 47 51 54 48 51 58 63 68 69 71 80 81 79 76
36 24 24 28 30 31 33 33 35 39 40 43 47 51 53 53 55 54 50 66 72 73 73 73 68 64 62 51 50 54 57 57 55 53 56 56 59 57 65 67 65 69 71 75 82 78 82
35 35 23 22 25 27 28 31 31 33 35 37 39 42 46 47 48 48 51 62 66 61 57 57 56 51 53 54 58 60 62 60 63 65 66 73 74 63 63 64 63 65 67 69 72 77 82
37 34 34 23 22 23 24 26 28 29 29 30 31 33 39 42 41 43 49 54 52 51 52 52 50 51 50 56 60 67 67 68 68 66 63 65 63 54 52 59 55 60 59 61 64 70 77
44 37 31 33 24 20 21 21 23 25 25 24 25 31 34 33 38 47 56 56 54 54 55 56 55 55 58 61 64 66 66 60 57 57 58 57 60 56 49 47 48 49 50 50 58 58 64
51 44 38 29 30 25 18 18 19 21 23 23 25 27 30 31 42 45 46 49 51 52 53 53 55 56 56 59 58 57 54 52 52 53 54 55 56 56 33 38 42 45 47 47 51 56 59
45 51 44 39 28 28 28 16 15 16 19 20 23 28 28 31 35 37 39 44 44 45 47 49 50 49 50 52 52 51 49 46 48 48 49 50 51 48 45 32 35 39 42 46 50 56 51
41 47 50 43 39 30 26 28 14 14 17 19 22 29 30 33 34 35 36 38 40 41 41 41 43 46 48 46 45 44 40 39 40 43 46 48 49 47 44 40 40 39 38 41 46 44 50
35 45 51 50 42 37 32 25 24 17 15 18 23 26 27 30 31 32 33 35 35 36 35 35 37 38 39 40 38 38 38 38 36 38 42 46 50 47 45 36 38 41 38 39 40 39 43
32 38 48 49 48 41 38 33 26 19 21 18 21 23 24 28 30 30 31 31 31 33 32 33 33 34 34 31 31 30 30 31 32 36 39 43 48 50 48 38 38 33 30 34 33 34 35
33 36 42 52 50 46 41 39 34 25 19 24 23 20 21 24 28 29 31 31 31 33 33 32 33 33 30 30 30 30 33 34 36 36 38 41 45 51 52 39 28 21 27 30 32 32 35
45 44 44 49 54 50 46 40 40 33 25 20 21 27 21 21 23 24 27 29 31 32 34 33 32 33 34 33 32 29 27 29 33 38 41 44 47 50 51 52 30 21 28 30 31 29 29
47 50 53 54 55 56 49 47 41 39 32 26 22 20 26 33 22 22 25 28 30 30 32 31 33 33 34 35 34 31 26 25 27 30 37 43 49 52 55 54 35 20 29 30 30 31 26
51 53 57 57 55 59 56 53 48 42 36 30 28 23 21 23 32 34 29 25 26 29 31 31 32 34 35 38 37 37 35 31 33 32 42 46 49 54 56 59 43 30 32 33 32 22 25
55 57 60 63 58 60 62 60 56 49 45 35 29 29 25 21 20 25 33 38 38 36 31 28 31 33 38 40 42 42 44 42 42 37 37 40 47 53 57 62 51 29 32 33 31 30 31
60 58 61 65 67 64 65 67 62 57 51 46 36 31 30 27 21 21 22 30 37 41 44 42 38 41 44 44 46 48 49 48 45 47 39 43 37 37 42 39 34 36 34 31 29 29 29

GFSGBSN_prec_cthk_108.txt.gz
RH
35 36 38 40 43 53 89 98 92 69 56 47 40 39 45 55 85 97 96 83 67 68 81 81 93 98 94 91 85 59 41 32 27 23 19 17 17 17 18 18 18 18 18 17 17 17 15
27 33 35 37 40 57 91 98 91 78 71 59 44 42 51 50 66 88 95 82 66 62 80 93 88 96 97 96 89 64 41 34 29 26 23 20 20 20 20 22 21 21 20 18 17 17 17
30 34 38 44 46 48 70 88 86 72 71 54 51 47 50 62 80 98 87 72 63 65 79 96 90 98 96 96 85 67 47 37 31 28 25 24 22 22 22 23 23 21 20 20 21 21 21
33 33 41 48 42 38 40 43 46 56 60 59 53 51 62 84 94 92 79 67 65 72 92 97 93 99 98 92 83 71 53 41 35 31 28 26 24 22 25 24 23 22 22 20 21 23 25
34 39 43 54 54 42 33 35 42 48 55 59 73 67 81 85 78 72 67 60 74 78 96 97 95 98 98 95 89 80 64 49 41 35 31 29 27 28 27 26 26 24 22 23 23 26 28
34 37 42 57 61 54 41 37 39 46 54 59 67 68 64 69 80 71 67 69 93 93 99 95 98 96 98 94 90 82 68 57 48 42 37 34 34 34 31 31 34 24 25 27 27 29 30
32 37 43 54 63 64 66 52 47 40 41 45 57 54 56 74 86 75 79 99 98 98 94 96 98 92 96 95 88 80 70 61 53 47 45 41 43 40 36 32 32 33 35 35 29 32 34
21 35 39 50 62 67 74 77 69 61 62 63 63 61 73 90 93 95 98 94 97 92 98 96 96 94 94 86 82 71 64 59 54 51 46 43 46 43 43 43 40 38 39 34 32 34 36
22 23 30 44 54 62 67 74 83 83 80 74 74 83 87 88 87 93 92 94 97 91 89 95 92 92 87 77 70 64 59 56 54 52 50 49 51 50 46 44 42 39 42 38 42 38 34
27 28 29 33 41 52 62 69 74 84 86 80 76 81 88 81 88 94 96 91 90 84 86 97 90 84 77 72 68 64 61 61 56 57 55 52 50 45 42 41 41 45 39 42 46 50 52
32 34 34 37 40 43 50 58 66 71 78 78 70 76 83 81 89 93 88 86 79 71 80 92 84 77 75 70 70 66 63 60 57 53 48 50 46 45 46 46 42 44 45 47 52 61 62
26 29 31 34 37 40 45 47 55 61 64 72 72 70 76 77 78 82 78 73 63 69 87 91 83 79 72 69 67 63 60 54 52 49 46 46 45 45 44 47 46 47 52 57 62 64 69
23 26 28 30 31 34 37 40 42 51 56 60 67 70 75 76 77 75 72 63 73 77 89 85 80 75 70 66 62 57 53 49 49 52 53 43 43 47 48 50 53 58 62 68 71 74 62
39 24 26 27 28 30 32 36 38 40 44 50 53 56 61 64 66 64 61 62 72 80 79 76 67 66 62 59 53 50 46 44 42 41 44 47 45 42 49 53 57 60 60 72 78 68 62
43 37 24 24 25 26 28 30 32 33 37 40 44 45 46 48 49 50 52 67 75 69 66 63 60 56 54 48 44 46 47 46 45 42 48 52 54 45 59 64 62 62 67 71 76 68 69
41 42 36 23 23 23 23 25 27 29 29 31 34 36 36 36 37 39 47 60 61 58 55 54 47 42 42 46 48 51 55 55 56 56 60 66 74 60 60 59 59 59 59 62 66 66 59
43 40 40 36 22 21 20 20 22 24 25 26 26 29 31 30 30 31 42 45 46 48 47 43 41 42 45 50 55 60 62 62 61 59 56 55 55 49 48 49 50 59 57 54 51 51 56
43 45 38 38 36 22 20 18 18 20 21 23 24 30 29 29 33 39 45 42 41 40 43 43 44 48 52 56 58 57 54 52 50 50 49 48 47 48 41 44 46 45 42 43 43 50 51
36 46 44 37 36 35 23 18 16 17 17 19 23 26 26 27 36 40 41 42 44 43 43 45 47 48 48 47 47 47 45 44 45 42 42 42 43 46 28 35 39 39 39 40 41 46 48
29 34 43 44 36 38 33 24 15 15 17 17 19 27 26 27 32 33 36 39 40 41 41 42 42 42 42 43 43 41 39 36 37 37 38 39 38 37 29 25 29 34 35 40 40 46 36
38 35 38 43 44 37 38 34 22 15 17 17 20 25 26 31 31 32 33 34 36 36 37 38 38 39 38 37 36 34 31 31 34 36 41 42 43 39 36 33 35 36 35 37 44 35 39
38 39 42 46 49 45 38 39 33 19 18 19 20 23 24 27 29 29 30 32 33 34 34 34 36 36 36 34 32 30 32 32 30 38 44 45 47 43 42 31 34 37 33 34 34 34 36
41 42 39 44 51 50 45 39 41 30 21 21 23 20 21 26 26 26 27 28 29 30 31 32 32 32 32 32 32 32 33 34 36 37 40 43 47 49 42 35 35 30 26 29 31 29 31
43 47 44 42 47 51 50 45 40 42 29 22 21 24 22 21 23 24 26 27 27 27 28 28 30 30 29 30 30 29 29 30 34 36 39 42 45 49 51 40 30 21 25 27 31 29 30
43 49 51 46 44 51 52 51 46 41 42 30 24 21 22 24 23 21 24 26 28 29 29 28 27 28 28 28 27 24 22 24 30 36 38 41 45 51 54 45 26 22 29 31 33 27 28
49 50 53 57 46 49 53 54 52 49 43 42 30 25 23 22 21 27 28 25 25 25 26 27 28 29 31 29 28 27 21 21 23 29 38 43 48 52 51 56 36 24 29 31 31 28 24
51 54 55 58 58 52 51 58 56 54 50 45 41 32 26 24 21 22 24 30 35 33 28 27 28 30 32 32 32 29 28 28 27 30 40 46 50 54 54 57 41 32 33 36 33 25 27
56 56 59 58 60 64 56 58 62 59 56 52 50 44 34 29 22 21 22 25 29 35 37 39 40 40 38 39 39 36 36 32 35 32 33 36 41 45 51 56 52 29 34 35 33 35 38
55 56 59 60 67 68 67 63 66 66 63 59 56 53 50 39 28 25 22 21 23 25 30 34 36 38 40 40 40 40 40 40 36 35 34 36 30 30 33 29 27 29 30 35 37 38 40

GFSGBSN_prec_cthk_111.txt.gz
RH
25 37 37 32 37 42 63 83 80 72 62 52 38 36 39 48 51 69 91 86 61 66 72 90 96 98 95 95 81 55 42 35 29 24 21 19 17 16 18 17 15 16 14 15 15 13 13
31 41 44 40 39 48 48 55 65 73 66 51 42 44 41 42 41 50 85 88 63 66 70 91 94 96 96 96 87 57 40 33 29 25 20 20 17 16 16 15 16 15 15 14 15 15 15
36 47 53 51 43 43 45 48 52 59 59 54 51 45 45 42 45 54 83 76 66 66 72 83 73 88 97 97 83 67 45 34 29 26 22 19 18 17 16 16 16 17 16 17 17 18 18
36 48 56 62 60 45 44 47 55 57 56 56 52 45 49 64 67 80 78 64 71 73 83 86 87 89 95 92 80 68 57 40 31 27 24 22 20 18 19 17 18 19 18 20 23 21 23
34 45 57 63 74 66 49 47 49 50 58 64 62 62 81 89 88 79 61 64 80 82 95 88 93 95 97 86 80 72 61 45 35 29 25 22 21 22 21 23 22 21 23 22 27 26 26
36 42 53 63 72 85 81 65 55 50 48 55 60 66 69 70 67 61 55 85 84 98 98 96 95 94 96 91 81 69 58 46 37 32 28 27 26 27 27 32 42 27 23 25 24 30 30
28 34 46 58 67 76 88 88 80 75 61 49 54 62 90 79 58 54 83 93 97 97 95 96 97 96 97 92 84 75 62 52 43 39 37 32 39 42 34 31 30 29 29 28 28 32 32
30 31 37 46 61 72 81 85 85 88 80 80 69 88 94 91 77 83 93 88 97 90 96 98 97 96 95 91 83 76 64 56 50 47 40 40 45 39 37 36 37 38 35 34 33 36 37
36 39 40 43 48 62 70 80 76 83 81 81 83 86 94 96 91 91 95 93 95 94 96 98 97 95 91 84 78 73 67 61 56 53 46 47 44 41 41 41 42 40 43 41 44 38 34
29 32 36 39 47 51 61 71 73 73 76 76 79 81 84 90 97 96 93 91 90 88 89 94 92 89 82 74 68 65 62 59 54 53 50 49 46 46 47 46 45 49 41 42 43 45 44
26 28 32 35 40 43 48 60 69 73 71 72 78 80 82 88 88 89 81 80 72 72 82 83 83 80 79 74 69 62 59 57 55 53 53 55 52 50 48 48 43 45 44 45 43 48 49
24 25 28 31 34 37 43 49 58 64 69 69 71 74 76 80 81 77 74 68 66 80 88 84 80 75 69 68 64 61 58 53 52 49 47 47 45 43 43 44 45 46 48 48 48 50 61
32 24 25 27 29 31 34 40 47 55 59 63 64 67 68 66 70 69 63 61 72 75 81 78 72 66 61 59 58 57 54 51 50 57 57 42 42 44 47 49 50 50 50 61 63 66 61
47 32 23 23 25 26 29 32 37 43 46 48 51 56 59 62 62 60 57 62 70 72 69 65 62 58 57 55 51 47 43 46 42 40 45 53 53 44 47 48 47 49 51 60 70 66 58
36 45 32 22 22 23 24 27 30 32 34 36 36 40 45 47 50 49 57 66 69 60 56 56 54 52 48 43 42 42 44 43 39 37 46 52 52 38 42 49 56 58 60 56 65 56 62
31 33 42 35 21 20 20 22 24 26 28 30 31 31 34 34 38 44 47 49 47 45 44 42 37 35 36 37 42 42 45 43 43 43 44 45 57 50 57 54 52 53 49 53 61 59 54
43 37 31 36 39 20 18 17 20 21 22 23 26 32 28 28 28 30 44 40 38 37 37 36 34 37 41 46 48 50 49 48 48 47 46 44 46 45 41 42 43 48 46 45 41 43 49
40 46 44 36 37 40 19 15 16 18 20 21 24 31 26 28 34 36 40 35 36 37 39 40 40 42 45 44 45 44 42 39 38 39 39 36 36 40 34 32 34 37 37 39 41 39 44
36 42 46 44 39 37 39 19 14 15 16 19 23 25 24 25 34 34 37 38 39 40 40 41 41 40 38 38 39 36 36 35 36 37 38 35 38 39 32 29 33 36 32 35 38 41 36
36 39 41 44 43 39 38 37 19 15 15 16 21 27 24 25 29 29 32 33 35 36 36 36 36 35 35 35 35 34 33 33 33 34 35 37 36 37 34 28 33 35 36 41 43 47 36
37 40 42 44 44 42 40 40 35 18 16 16 20 23 24 28 26 27 28 29 30 32 33 34 33 33 33 34 31 29 28 29 31 34 36 38 39 38 33 30 30 31 35 35 38 40 48
36 40 42 41 46 43 42 42 42 34 19 16 22 24 24 25 25 26 26 26 28 29 29 30 31 31 31 32 30 30 29 29 28 35 40 40 42 39 41 29 30 31 31 32 34 34 34
34 43 46 43 42 47 44 43 44 43 34 22 18 20 22 23 24 24 24 25 25 26 27 28 28 28 27 27 28 28 28 28 29 30 36 40 42 46 41 30 34 31 23 25 26 26 27
41 44 47 48 47 43 46 47 43 46 44 37 23 20 20 22 23 23 24 27 27 27 26 27 27 28 26 26 26 25 24 26 27 30 32 38 44 46 48 40 43 25 24 23 25 25 27
42 47 48 53 52 48 46 50 47 47 49 46 38 26 22 18 19 23 24 25 26 27 28 28 27 27 27 26 25 23 23 25 28 32 35 37 43 49 53 45 29 25 26 29 30 25 25
47 49 53 57 56 53 54 52 55 53 52 51 48 43 31 26 20 17 22 28 30 28 26 24 25 25 27 27 27 28 22 20 23 32 34 40 44 47 44 52 36 21 25 28 30 30 24
49 56 56 56 57 54 56 56 59 59 58 56 54 51 48 37 27 22 19 19 24 28 33 37 37 36 37 35 35 29 28 29 26 26 39 42 50 52 51 51 36 25 28 30 30 25 28
56 61 62 58 59 59 58 59 60 60 61 62 59 58 57 56 44 29 26 21 22 24 26 33 37 40 43 41 36 35 33 30 31 24 28 32 40 48 46 49 46 26 30 27 24 27 30
65 66 66 65 62 63 65 62 65 65 65 65 65 63 60 61 60 50 42 29 29 26 26 28 28 31 35 40 39 37 36 35 31 30 29 33 27 27 31 29 25 26 22 26 27 29 32

GFSGBSN_prec_cthk_114.txt.gz
RH
38 52 56 52 49 49 49 53 84 84 82 58 41 47 44 56 55 62 68 69 56 62 61 80 93 97 97 86 69 54 42 31 28 26 25 24 22 20 21 18 14 15 15 13 13 12 11
38 54 61 68 53 52 52 56 56 60 59 61 48 41 39 41 38 38 60 71 60 63 58 94 97 96 97 90 74 53 44 35 31 28 26 23 20 19 18 16 16 15 14 13 12 11 11
39 52 61 73 70 57 51 49 53 62 56 51 55 53 40 34 40 41 45 69 65 67 72 93 95 95 93 91 75 57 47 37 31 28 23 21 19 18 16 16 15 13 14 13 13 13 15
40 50 61 74 83 77 69 50 50 51 60 57 52 51 59 56 53 46 47 69 69 72 77 89 89 92 96 88 77 65 48 38 30 26 22 19 18 17 18 14 13 14 12 17 18 19 21
37 44 57 71 78 84 89 81 54 53 59 67 74 85 87 67 52 58 71 72 79 86 92 81 88 86 96 91 83 70 50 37 30 25 22 18 17 17 16 17 18 15 19 19 26 25 24
34 39 49 67 78 81 87 93 88 56 60 63 69 79 86 85 74 59 74 89 88 84 95 94 89 87 97 92 81 72 59 44 34 28 24 22 21 21 19 29 41 28 21 22 23 29 28
40 44 48 58 68 75 86 90 88 81 66 69 91 86 59 63 53 76 84 88 91 92 89 83 82 85 85 82 78 70 61 53 41 34 29 26 35 37 26 26 29 29 27 27 27 33 32
31 36 42 50 64 77 78 79 81 82 72 83 95 89 58 53 72 87 83 88 93 85 94 89 87 78 80 79 75 66 58 50 44 37 29 33 39 32 31 31 32 32 34 37 36 35 39
29 31 37 42 54 64 75 78 75 80 76 76 80 79 66 70 92 94 90 93 93 91 91 98 94 93 90 84 75 65 58 52 46 40 40 43 40 35 36 36 39 39 42 43 46 42 40
26 28 31 36 44 52 60 72 74 72 77 74 71 79 72 78 90 95 95 93 93 89 92 97 95 90 85 77 68 62 57 55 51 50 48 47 42 42 42 45 42 49 44 46 49 52 55
24 26 27 30 36 41 49 57 68 71 69 76 73 70 73 75 79 83 81 80 77 83 86 91 86 76 73 70 63 59 56 53 52 49 49 50 46 47 49 52 46 50 47 48 47 48 50
32 24 25 26 29 35 39 44 54 60 67 67 71 72 68 66 66 62 58 56 68 74 82 79 74 68 66 61 57 54 52 48 48 48 47 46 44 44 45 45 46 45 48 50 48 49 56
43 31 22 24 24 27 34 36 39 47 53 60 66 67 71 70 65 61 56 57 66 69 66 67 65 60 56 54 52 51 48 48 50 57 58 47 44 44 43 46 46 49 56 60 64 66 66
31 43 30 21 22 23 25 30 33 34 38 46 50 57 56 55 58 59 61 64 70 69 65 60 59 54 52 49 49 47 50 50 41 41 49 54 49 40 41 45 46 45 45 57 63 69 65
40 33 39 31 20 19 21 23 27 29 32 32 36 41 46 46 49 56 61 62 64 57 53 53 54 51 48 42 42 41 40 39 36 33 43 51 49 33 36 40 46 51 49 45 58 54 60
46 40 33 37 34 19 17 20 21 23 25 28 30 34 37 40 43 45 45 50 51 46 43 43 37 36 38 39 42 44 43 39 39 39 42 40 55 43 50 50 49 52 46 53 55 62 60
42 44 42 32 37 35 18 16 18 19 20 22 26 30 25 29 32 31 41 37 34 32 35 36 32 34 38 42 44 44 43 42 43 42 41 42 45 48 41 43 47 49 47 43 40 40 59
39 41 43 44 34 34 37 15 14 16 18 20 24 30 24 27 30 29 36 31 30 32 34 35 35 36 39 38 38 38 38 36 34 35 39 34 37 43 34 32 34 38 41 40 50 38 45
36 41 41 42 45 38 36 35 15 14 15 18 22 24 23 28 36 35 34 35 35 35 35 35 35 36 34 35 37 33 32 31 29 30 33 32 37 43 37 34 35 36 32 35 37 40 45
29 39 44 43 41 44 40 39 34 17 14 16 21 28 24 25 27 28 31 32 34 34 34 34 33 32 32 32 31 32 29 30 27 28 30 31 33 35 38 28 33 35 33 34 40 52 42
29 36 43 45 43 43 44 40 40 34 18 17 21 22 24 31 26 25 27 27 29 31 30 30 30 31 31 31 28 29 27 28 29 31 32 35 39 36 35 32 33 33 32 32 36 36 47
27 32 41 45 45 45 44 44 42 42 37 20 21 25 22 23 24 28 27 26 27 27 27 28 30 29 29 30 29 31 28 28 28 34 36 38 43 39 39 30 32 36 29 30 31 30 34
29 32 37 44 48 49 45 45 47 44 43 39 25 20 21 23 23 23 26 27 28 27 27 28 28 28 27 28 27 26 26 25 27 30 36 39 45 46 48 38 39 40 27 27 28 28 29
29 32 36 46 52 55 51 47 47 50 48 46 42 28 23 23 21 23 23 22 25 25 27 27 27 28 27 26 22 21 22 23 24 26 31 35 43 47 50 44 53 29 22 22 25 26 26
33 35 38 47 51 56 56 59 51 52 53 52 50 45 36 27 20 17 21 24 24 22 23 23 24 25 25 24 26 24 24 25 26 30 34 36 41 51 58 57 38 28 24 25 26 24 21
37 41 44 49 56 57 58 56 56 61 57 56 56 54 53 46 33 23 20 20 23 25 30 31 27 25 25 28 31 33 30 23 29 34 35 39 42 49 49 59 49 26 25 24 26 31 21
42 47 50 54 57 60 60 57 58 60 56 58 60 58 57 60 51 42 32 26 22 22 25 26 29 34 35 37 40 37 36 28 30 29 44 45 48 52 52 56 43 26 28 28 31 24 24
48 49 54 57 60 62 62 61 61 63 61 60 61 63 62 62 59 56 50 45 35 32 29 34 32 35 39 40 37 35 35 30 31 26 35 40 48 51 52 56 51 29 30 30 23 22 23
46 50 55 59 61 63 63 65 65 66 64 64 61 62 63 65 66 61 60 59 51 45 38 38 43 46 45 45 40 38 38 33 31 34 24 30 29 34 36 34 26 27 25 25 25 25 27

GFSGBSN_prec_cthk_117.txt.gz
RH
47 56 68 70 59 54 52 50 54 63 59 48 52 80 88 89 86 87 83 70 63 62 63 75 83 93 94 80 60 47 36 28 23 26 26 24 23 22 22 19 16 18 18 16 13 11 10
47 60 72 75 81 70 51 44 57 54 50 46 40 48 58 61 53 55 63 65 64 67 64 75 84 92 94 82 62 49 36 33 27 24 23 23 22 21 20 17 16 16 14 14 12 11 10
45 59 71 74 85 91 80 45 48 59 52 48 51 41 34 36 38 44 55 66 65 80 73 72 75 90 93 86 64 52 39 34 30 26 25 23 23 21 18 17 16 13 13 13 13 12 12
46 56 68 78 85 94 95 65 52 61 64 57 55 61 45 38 41 42 52 73 69 79 74 81 89 94 96 83 65 51 40 36 33 28 25 22 21 18 17 15 13 14 12 16 15 14 16
46 56 67 75 78 89 89 83 61 64 62 72 83 83 57 49 42 48 63 80 74 86 92 89 93 94 91 81 71 57 43 37 32 27 23 19 17 16 16 16 19 15 17 17 18 18 19
41 48 57 71 82 86 81 76 66 61 70 76 80 74 58 48 50 70 78 93 89 90 92 91 91 92 90 78 71 59 45 38 31 27 23 20 19 22 22 28 32 23 17 16 19 23 25
38 44 51 60 74 81 74 66 64 61 68 67 60 66 59 58 75 77 78 90 97 97 87 90 89 89 89 76 65 57 47 39 36 31 25 26 27 29 24 22 21 21 21 23 27 28 32
29 40 45 53 62 73 73 61 57 65 69 61 50 52 64 91 85 94 96 82 83 83 83 82 85 84 88 76 67 62 51 44 39 33 29 31 34 26 22 22 23 25 28 37 33 33 35
26 30 40 44 52 60 70 69 57 60 64 57 58 70 86 81 81 80 84 86 85 78 80 87 82 74 72 70 71 64 58 51 42 38 34 35 31 27 27 29 34 35 36 38 40 40 39
24 25 30 36 40 50 58 67 66 58 62 68 69 83 84 85 91 92 95 94 86 80 80 86 78 75 71 66 61 58 54 49 46 44 40 38 32 32 33 35 38 41 40 42 47 49 52
28 23 24 29 34 39 48 56 63 62 59 61 64 77 82 85 86 89 85 79 74 78 83 91 84 71 69 64 55 53 52 48 47 44 44 44 40 41 43 41 40 46 44 47 50 52 54
36 26 22 23 28 32 36 44 53 61 61 61 65 64 60 63 66 66 63 66 69 64 83 76 72 68 65 61 58 54 53 48 49 48 48 46 43 43 43 43 44 45 49 51 50 49 57
34 37 26 21 22 25 29 31 38 48 54 56 59 59 57 54 57 53 52 54 52 66 64 64 63 59 56 54 54 52 50 50 52 46 54 49 44 44 43 46 46 47 52 59 60 65 60
35 33 36 26 20 20 23 26 29 32 40 44 47 50 50 49 49 51 51 49 58 62 64 56 55 55 54 54 52 51 52 51 42 44 53 51 39 40 39 44 44 47 46 53 43 62 58
44 36 32 36 26 18 19 21 23 25 28 35 38 40 43 48 49 50 49 56 59 57 52 52 49 46 43 40 39 38 37 38 34 34 40 46 44 34 37 37 40 50 52 45 52 54 59
44 45 39 32 37 26 16 17 19 20 21 23 29 33 33 35 37 39 42 49 46 41 41 40 37 33 36 37 40 40 40 34 35 34 37 36 46 36 39 45 46 49 48 51 54 54 56
38 44 45 42 34 34 29 14 15 17 19 20 24 25 26 29 29 24 35 37 35 33 34 35 35 36 39 42 43 45 44 40 41 39 39 40 44 45 41 41 42 46 48 45 44 47 52
32 37 42 44 42 35 33 28 13 14 17 19 22 25 25 26 27 30 34 31 29 31 35 38 38 38 39 38 37 37 36 34 30 31 33 31 38 41 34 31 34 38 40 40 47 38 45
28 32 38 40 45 42 37 35 28 14 14 15 19 22 25 26 31 34 33 33 33 35 36 36 36 35 34 34 34 32 31 31 28 29 33 34 37 43 38 36 35 37 35 38 41 45 48
26 29 31 35 40 46 42 39 36 29 15 15 19 23 21 23 25 29 31 32 34 33 33 34 32 31 32 32 31 32 31 31 28 29 31 32 36 33 26 26 33 38 35 35 40 51 39
26 28 30 32 38 42 46 43 41 39 31 18 20 21 24 28 24 25 27 28 29 31 30 30 31 32 33 33 31 31 28 30 29 30 32 33 41 37 34 33 34 34 34 34 37 33 44
24 26 29 32 38 42 47 46 44 42 41 36 23 22 21 22 23 24 25 27 27 29 28 29 30 30 28 29 30 30 28 28 28 35 36 38 41 41 43 34 36 37 33 33 33 33 34
23 25 28 31 37 43 50 48 50 47 44 43 42 30 21 23 23 23 26 26 25 25 25 25 27 27 26 26 26 26 26 26 28 33 38 40 46 45 46 38 37 37 26 26 27 26 28
25 29 32 35 36 40 50 51 55 50 54 48 46 44 35 26 21 21 24 24 23 24 25 25 25 25 24 25 22 19 20 20 22 25 32 39 48 50 52 43 50 21 23 23 25 23 23
28 31 35 36 39 39 50 54 53 51 55 50 51 51 50 46 33 20 19 20 22 23 24 23 23 24 25 24 26 25 25 27 29 33 34 35 42 49 52 56 36 28 22 23 23 22 20
27 32 36 38 40 42 47 54 55 56 54 52 53 55 55 56 54 44 30 24 22 22 22 26 31 32 31 31 35 37 34 28 28 34 36 38 42 47 52 59 51 26 25 25 23 27 19
29 32 36 38 39 40 43 51 58 57 58 57 54 56 60 61 56 57 54 47 37 35 31 29 28 28 30 35 38 38 36 27 29 30 42 44 47 51 51 53 42 28 28 30 32 23 20
36 37 36 37 38 41 43 49 58 59 59 60 57 56 58 58 62 63 62 59 61 59 50 43 37 45 50 50 52 46 42 34 32 29 36 39 48 51 55 55 51 28 32 31 27 25 25
39 39 39 40 42 46 47 51 57 60 60 61 61 58 57 57 57 60 61 57 59 60 56 49 46 50 56 61 59 58 56 52 48 52 46 49 42 43 42 38 26 29 27 28 29 29 31

GFSGBSN_prec_cthk_120.txt.gz
RH
50 67 74 81 85 77 49 48 49 48 49 52 81 89 96 88 88 85 84 73 70 60 83 89 92 87 84 66 49 35 32 29 29 28 27 26 25 25 25 24 24 28 28 26 22 17 15
49 68 73 79 86 87 56 53 55 47 47 42 55 73 80 68 75 74 75 69 71 61 72 88 91 91 86 73 56 35 29 29 30 29 25 24 24 23 22 22 20 20 18 18 15 13 10
54 68 74 75 77 75 61 52 57 60 45 49 45 39 55 46 56 62 67 65 73 64 78 87 92 85 85 75 56 37 29 29 31 28 23 23 23 21 19 19 18 16 15 14 13 11 11
48 60 72 72 69 69 60 50 54 68 75 61 48 37 43 36 41 55 61 80 80 80 79 84 89 90 90 74 57 40 33 29 29 27 24 23 22 21 19 18 15 14 14 15 15 14 15
42 54 69 66 65 61 60 48 58 80 86 77 49 43 35 36 47 60 63 80 84 84 80 80 88 81 83 75 58 45 35 30 28 27 25 22 19 19 18 18 21 18 17 15 16 16 16
38 47 61 63 60 58 56 51 61 78 73 58 46 39 37 50 61 75 74 83 81 79 72 74 79 78 79 73 59 49 38 32 29 27 24 22 21 23 23 26 25 20 15 15 16 19 19
34 39 51 60 56 58 58 55 69 67 63 50 42 41 53 64 76 93 88 81 83 77 71 76 88 75 74 69 60 47 37 34 31 28 28 26 27 29 24 22 19 19 19 19 22 22 25
29 33 42 53 58 51 55 58 66 64 60 54 58 69 74 73 91 94 96 85 75 73 87 91 85 79 70 65 59 49 40 36 32 32 30 30 32 25 22 21 21 21 22 27 26 27 31
23 26 32 43 50 51 46 53 66 72 68 68 72 76 79 83 84 85 85 86 82 82 87 91 90 78 68 62 60 54 47 38 34 35 32 30 28 24 22 24 26 29 28 31 35 35 34
22 22 27 32 39 49 53 54 59 63 73 83 80 81 87 87 94 83 85 85 81 80 80 88 86 77 71 64 59 55 47 41 38 38 35 32 27 27 28 28 33 33 35 38 42 44 43
28 21 22 26 30 37 46 52 57 61 64 70 84 90 94 95 90 81 82 80 79 80 84 84 76 71 70 66 56 57 52 45 43 40 36 36 34 34 36 34 36 41 40 44 47 49 50
35 27 20 22 25 27 33 42 50 53 57 58 62 66 67 72 70 71 76 78 80 74 89 81 74 66 64 60 57 52 50 46 46 43 42 41 39 40 41 42 42 44 48 50 47 51 56
33 36 27 19 21 24 25 30 36 43 47 48 50 53 55 51 52 55 59 65 64 75 74 73 68 65 62 58 54 52 48 49 49 45 51 47 44 42 42 46 46 47 48 50 45 56 53
39 32 38 29 18 20 22 24 26 31 36 42 45 47 47 46 45 47 51 52 62 67 66 60 58 55 57 55 55 53 51 53 48 47 55 47 39 42 42 45 44 45 41 46 33 52 54
41 41 32 37 33 16 17 19 20 21 25 28 34 39 42 44 44 44 44 56 58 58 53 53 53 53 50 47 47 45 44 44 40 40 42 50 43 37 37 35 35 42 48 44 49 54 58
32 35 41 35 33 34 16 15 17 19 19 20 24 26 28 32 33 35 39 47 45 41 38 36 34 31 34 36 39 38 37 33 31 30 32 34 40 32 29 34 41 45 42 47 51 42 48
29 30 35 41 38 32 32 17 14 16 19 21 22 22 25 24 24 22 34 36 33 32 32 34 37 36 38 41 40 41 41 37 38 37 37 37 41 43 40 39 39 44 48 46 43 45 51
26 27 28 34 41 41 34 31 17 14 17 20 22 23 23 20 21 26 32 29 29 32 35 38 38 37 38 37 36 36 35 34 28 29 32 30 36 41 34 30 33 36 41 43 47 36 48
25 25 26 29 37 45 41 37 31 20 14 16 20 23 23 22 26 31 29 30 31 33 35 35 35 34 33 34 33 32 32 30 28 28 32 34 35 42 28 35 37 41 38 40 41 45 48
22 24 27 28 34 38 45 41 39 33 22 16 18 22 22 23 25 28 30 31 31 32 33 33 33 31 32 32 31 31 30 30 28 27 29 31 35 32 21 18 30 36 34 36 42 55 43
20 21 25 27 31 34 41 44 44 41 36 27 17 21 23 26 25 25 27 28 30 31 31 31 31 31 32 34 32 32 29 32 31 31 32 34 38 37 34 32 34 33 34 33 38 37 44
19 20 24 27 29 30 39 43 47 44 42 38 34 22 20 22 22 23 24 26 27 27 28 28 30 30 30 30 29 30 29 30 30 35 37 39 40 42 46 35 37 40 35 35 35 35 35
19 20 25 28 29 31 32 42 47 46 46 42 43 39 28 23 20 20 23 24 24 23 23 24 25 26 26 26 26 26 26 26 28 34 39 44 48 47 46 39 40 38 26 27 31 31 31
21 22 25 29 30 31 34 34 42 46 51 44 46 47 45 40 28 22 20 21 22 23 23 23 23 24 22 24 23 20 21 22 26 29 34 42 46 50 53 44 40 22 25 25 27 25 26
21 21 24 29 31 31 33 37 37 46 50 49 48 50 52 52 53 38 26 22 22 21 22 21 22 23 26 26 26 26 25 29 34 36 37 36 44 50 54 56 34 27 24 24 26 24 22
24 23 24 29 33 31 32 35 42 39 50 50 51 49 53 57 54 53 55 49 42 35 27 25 25 27 28 29 30 31 28 24 26 33 35 38 40 45 52 58 40 22 25 26 27 29 21
25 27 29 30 31 32 33 34 37 41 47 53 53 53 51 54 56 59 61 59 58 51 51 44 44 38 38 45 46 46 41 29 30 29 39 46 50 50 54 57 43 27 28 30 33 24 25
33 32 33 34 34 34 35 36 38 40 45 52 56 56 55 53 54 58 60 64 60 59 64 60 54 52 53 56 61 62 62 53 52 48 52 54 65 70 72 74 66 41 43 41 34 31 29
38 37 37 38 38 38 38 40 40 42 44 48 53 57 57 55 51 52 56 56 57 55 58 61 57 57 55 51 56 61 65 62 59 60 59 57 55 60 59 56 49 47 48 45 43 41 36

GFSGBSN_prec_cthk_123.txt.gz
RH
55 61 61 65 62 52 49 57 47 45 52 78 92 94 91 94 90 93 85 77 64 52 83 89 90 90 74 54 47 41 28 28 28 27 28 26 24 24 27 26 26 27 30 30 29 28 26
51 58 62 60 61 47 49 62 58 45 46 61 70 71 71 82 81 88 83 78 68 62 82 96 90 87 75 56 42 41 34 31 29 28 26 24 23 23 24 26 25 28 29 27 25 22 19
53 55 60 60 63 52 54 66 72 50 44 50 39 46 56 69 71 70 67 73 72 72 83 93 94 95 78 59 40 36 37 37 32 28 26 24 23 23 22 24 23 24 22 20 18 16 15
52 54 58 57 63 56 48 68 79 64 46 47 34 33 41 58 62 67 73 76 73 74 90 91 91 92 85 60 40 33 34 36 36 31 26 25 22 21 20 19 19 18 17 16 16 15 15
52 53 54 54 59 61 55 55 58 54 43 39 34 30 41 63 67 84 90 85 82 76 85 88 89 92 81 62 42 33 32 35 34 31 28 24 20 20 19 20 22 18 17 15 16 15 15
43 52 51 55 56 61 60 52 40 33 32 28 28 45 57 69 70 84 93 95 89 87 91 94 87 82 77 62 45 36 32 31 30 28 26 23 22 24 25 26 26 18 15 15 15 19 19
36 47 52 53 55 57 62 54 45 33 30 31 43 51 65 75 69 87 85 85 92 94 91 88 85 79 74 59 47 37 33 30 28 27 29 27 30 32 28 24 21 20 19 18 20 22 23
28 37 46 53 56 57 61 62 54 49 54 61 68 79 89 83 83 84 93 87 89 89 84 84 80 76 71 60 49 41 35 32 30 34 30 30 35 29 26 24 22 21 20 22 21 23 27
22 28 34 43 50 55 57 66 67 64 63 63 69 76 83 81 85 92 84 84 87 87 81 68 66 68 65 58 53 47 39 36 35 34 32 32 30 27 24 25 24 26 23 26 29 30 29
20 22 27 32 40 48 53 55 68 73 75 79 82 81 81 81 85 85 82 83 82 76 76 74 70 71 66 59 53 46 39 35 34 33 31 30 27 26 24 26 27 24 30 33 38 40 37
31 20 23 26 30 38 46 50 53 61 68 72 83 82 81 79 78 77 75 73 72 70 81 83 74 67 63 58 54 48 41 35 36 36 30 30 29 30 29 29 31 34 36 40 43 46 49
40 32 20 22 25 28 36 42 46 50 54 58 61 67 70 70 72 74 73 74 73 73 90 83 78 73 65 62 55 50 46 41 38 35 35 35 33 34 35 36 37 40 45 46 48 51 53
30 40 34 19 21 24 25 30 37 42 45 48 49 52 54 55 58 64 67 70 71 80 76 77 75 68 63 62 58 54 50 46 45 39 42 39 39 38 40 45 45 46 43 43 40 49 42
32 34 36 37 17 19 22 23 25 30 36 41 46 49 49 52 53 57 58 59 71 76 73 66 64 61 62 59 57 55 51 53 48 46 54 46 40 41 42 44 44 44 39 40 28 40 47
28 33 40 36 37 17 17 19 21 21 25 29 34 40 45 45 49 49 49 56 59 60 55 55 55 55 56 53 53 51 50 49 46 45 41 51 44 39 40 40 38 41 43 41 48 52 55
26 28 37 44 38 35 17 15 18 19 20 22 26 30 34 38 39 42 42 47 47 46 45 46 46 45 47 46 46 43 41 36 34 36 36 37 40 36 32 32 34 40 43 43 46 34 39
26 27 30 36 45 41 37 20 15 18 20 22 23 25 27 27 28 28 36 37 36 36 36 36 35 33 34 38 37 38 37 33 33 32 32 33 37 39 38 38 38 43 45 44 42 44 49
25 27 29 31 38 45 42 40 27 14 17 21 23 24 23 22 21 25 31 30 29 31 34 35 35 34 37 38 38 38 35 34 31 29 31 31 35 39 33 30 32 35 39 42 45 37 49
22 24 28 30 31 41 44 46 42 31 15 16 20 22 23 21 25 31 29 29 30 32 33 33 33 33 32 33 31 31 31 30 29 28 31 32 34 38 23 31 35 40 38 38 39 42 47
19 21 25 27 30 33 41 45 44 42 36 23 17 21 21 21 24 27 30 31 32 31 31 31 31 30 31 31 31 31 30 30 29 28 30 30 34 30 21 17 28 38 34 38 41 54 45
17 17 22 25 27 29 32 39 45 43 41 38 30 21 22 25 24 26 26 28 29 29 30 29 30 28 29 31 30 30 29 31 31 31 32 33 37 37 35 33 34 33 34 36 44 40 46
17 16 20 24 26 27 30 33 37 43 44 39 40 38 25 22 23 23 25 26 26 27 26 26 27 27 28 28 27 29 27 30 29 35 37 39 41 42 45 36 40 42 37 38 38 37 38
19 18 18 23 26 26 27 30 33 37 46 43 42 44 42 37 24 20 23 26 26 25 24 25 26 27 26 25 25 25 26 26 27 32 37 42 47 46 46 40 40 38 29 32 34 34 33
20 19 19 20 26 27 26 28 30 35 38 46 47 46 47 49 46 34 26 22 22 23 24 25 26 27 24 24 23 22 23 25 28 31 36 44 47 49 51 42 32 20 24 25 28 27 29
19 19 19 20 25 27 26 28 30 34 39 38 47 48 48 51 51 46 45 36 26 23 26 22 23 23 25 27 30 28 25 29 34 35 36 40 43 45 50 54 31 22 22 26 27 24 24
20 20 21 22 25 27 27 28 30 33 35 40 43 49 49 49 51 51 55 54 53 49 41 34 32 30 29 31 32 29 27 24 27 35 37 40 44 48 56 57 44 29 31 34 38 37 27
22 21 23 26 27 28 29 30 32 33 36 38 40 47 51 50 50 48 55 55 57 57 57 59 57 54 49 45 48 52 52 47 44 41 58 61 62 65 69 74 62 49 44 49 49 42 43
26 26 25 27 29 31 32 33 35 34 35 37 40 44 48 52 52 53 51 52 58 61 59 57 60 59 60 58 59 59 64 61 59 58 68 69 74 73 74 82 74 50 51 49 46 47 46
34 33 33 34 34 37 39 40 40 41 39 39 41 43 47 49 48 51 51 52 52 54 58 56 54 59 60 61 62 62 60 60 59 59 61 63 60 62 62 58 51 48 49 47 47 47 47

GFSGBSN_prec_cthk_126.txt.gz
RH
47 55 60 59 51 59 74 51 44 49 60 76 81 86 89 88 87 83 79 69 58 63 76 88 93 79 71 54 47 33 27 28 28 33 34 29 29 28 26 25 25 28 29 28 28 27 27
45 55 54 49 41 53 58 47 44 47 51 53 59 70 75 87 86 81 78 71 60 63 72 96 86 87 69 53 45 39 30 29 28 31 30 28 28 27 26 27 27 28 27 27 26 26 25
46 51 52 46 37 42 53 49 43 39 37 37 46 64 70 76 85 79 81 76 66 69 92 97 94 83 71 54 42 40 34 30 29 30 27 24 25 24 25 27 27 27 27 26 26 25 24
46 51 50 47 40 36 40 40 36 34 27 28 39 59 64 73 79 89 91 81 75 73 86 96 95 85 69 54 41 38 39 31 30 29 25 23 22 22 23 24 25 24 23 22 24 20 19
41 45 50 47 40 36 36 29 27 25 23 30 48 64 70 91 81 87 85 86 77 76 86 94 94 82 67 47 40 37 41 35 31 29 25 23 21 22 21 22 24 21 18 17 18 19 19
37 44 49 51 44 43 37 32 32 35 37 42 51 64 77 86 86 83 84 83 84 87 90 87 90 77 64 48 38 36 40 38 32 29 25 23 22 25 25 25 26 17 16 17 16 20 20
28 38 47 50 53 47 48 46 50 62 67 74 67 64 63 76 90 95 87 92 81 86 85 93 91 81 61 46 38 34 36 36 32 29 28 25 30 33 29 26 23 20 20 18 18 22 22
24 28 40 49 50 54 55 58 69 74 82 85 73 71 74 81 88 93 94 92 83 85 90 87 81 75 61 45 38 36 35 34 34 35 30 30 35 30 29 27 24 23 20 21 20 22 25
21 24 30 40 47 48 56 67 72 76 81 86 82 81 83 83 84 91 84 80 84 83 78 76 74 65 60 48 43 41 38 38 37 36 33 32 32 29 27 27 25 27 22 25 27 28 27
24 22 24 30 39 45 49 56 67 74 78 81 84 84 89 85 84 89 84 80 77 69 74 76 73 67 58 50 45 41 39 38 37 36 34 34 31 29 25 29 28 22 29 31 34 34 31
40 21 22 24 28 34 42 49 54 62 73 76 75 75 81 84 81 81 76 70 67 66 79 71 70 64 59 51 47 43 39 36 38 36 29 31 31 29 28 28 28 29 32 36 40 43 44
40 41 20 21 24 25 30 37 47 50 52 58 65 65 64 66 68 70 70 69 70 65 80 71 67 62 57 52 46 41 37 33 33 32 31 31 29 29 29 30 33 36 40 40 46 48 48
35 39 43 21 18 23 24 26 31 39 46 51 53 56 61 60 58 59 61 64 68 79 71 71 68 62 58 53 47 42 39 36 33 31 35 32 32 32 33 38 40 41 38 40 37 43 37
32 38 41 41 23 16 19 22 23 26 32 39 43 48 50 54 56 57 57 59 73 77 74 70 64 60 60 56 51 48 43 45 39 35 42 36 33 36 38 41 42 45 39 40 25 35 37
28 32 43 44 41 28 15 18 20 21 24 28 34 38 42 44 45 48 48 61 63 62 58 58 55 54 55 55 53 48 47 45 43 41 36 42 41 40 41 42 40 42 43 35 44 50 51
26 28 32 45 46 43 32 14 17 20 20 22 25 30 32 33 32 34 39 51 52 52 51 50 49 49 52 50 49 46 46 41 41 42 41 38 42 41 39 37 37 36 37 44 43 27 29
24 27 28 33 44 49 46 38 15 17 21 22 23 26 26 26 25 24 37 40 39 38 40 41 43 43 43 45 43 44 39 37 36 36 37 37 35 40 35 34 35 44 45 44 40 40 46
22 25 27 29 33 42 48 47 42 21 16 22 25 26 25 24 22 28 32 31 30 32 33 32 31 29 33 34 36 38 37 37 33 32 34 34 36 41 36 33 34 36 38 39 40 34 47
20 21 25 27 29 30 38 45 46 42 30 18 20 24 25 24 25 32 31 32 32 34 35 34 34 33 34 35 35 34 33 32 30 29 30 29 30 33 22 29 35 37 36 37 37 39 46
19 19 23 26 27 28 30 34 41 45 40 39 24 21 21 22 23 26 29 31 32 32 32 32 32 31 31 32 31 30 30 30 29 28 28 28 32 25 19 15 26 36 35 38 40 52 44
18 18 20 24 27 26 27 29 32 38 44 39 39 38 24 24 24 24 25 27 28 27 28 28 27 28 28 30 30 29 29 31 30 30 30 30 34 35 32 31 32 31 32 38 44 39 43
19 18 17 21 25 26 26 27 29 32 38 42 41 43 43 36 24 21 23 24 24 26 25 25 26 26 27 27 26 26 28 30 28 34 35 38 40 42 44 37 41 43 39 38 38 38 40
19 19 18 17 21 25 25 26 27 30 34 39 44 45 45 47 43 33 25 23 22 22 23 24 25 26 26 25 25 26 27 28 28 33 37 42 46 46 46 40 40 36 30 33 37 36 35
19 19 18 17 18 23 24 24 26 29 30 35 38 45 47 49 52 49 45 36 31 26 22 21 22 23 20 22 22 22 23 27 30 33 37 44 46 49 51 40 33 20 24 26 31 32 34
21 20 20 19 19 21 23 24 26 28 30 31 34 38 45 50 50 49 52 52 47 42 43 40 31 24 23 23 26 24 23 27 34 34 35 39 43 45 50 55 36 21 27 32 34 38 36
22 21 21 21 21 23 24 26 27 28 29 31 33 35 37 44 51 49 50 54 57 58 53 46 45 47 46 42 36 31 31 27 32 42 40 46 48 50 58 60 46 37 46 44 43 47 43
24 23 23 23 25 26 27 28 29 30 32 32 33 34 36 38 42 48 52 52 51 57 59 58 62 62 59 57 54 50 45 47 51 52 68 71 73 74 77 75 61 53 49 52 51 46 46
26 26 26 27 28 29 31 33 34 34 36 36 37 37 37 38 39 45 48 52 55 56 55 56 60 61 61 60 59 58 57 58 55 52 63 68 76 77 77 80 72 51 54 53 49 49 48
31 33 31 31 34 36 38 39 40 42 41 42 42 42 44 43 43 44 44 47 52 57 55 56 54 55 59 59 58 62 64 64 63 60 55 57 58 64 64 58 52 50 48 48 49 49 48

GFSGBSN_prec_cthk_129.txt.gz
RH
45 33 32 34 39 40 43 39 33 44 53 54 67 81 83 92 87 85 89 83 69 68 76 93 85 85 70 52 44 32 27 34 32 32 25 22 21 18 18 18 17 19 19 19 20 21 22
50 37 34 33 38 42 38 33 30 34 39 53 65 76 82 84 82 86 83 78 72 81 77 88 92 82 68 53 45 36 28 30 35 34 30 27 24 19 18 19 19 20 21 21 22 24 25
48 45 36 36 41 42 39 27 22 26 36 65 68 77 84 84 87 91 86 81 73 73 78 93 88 82 67 56 44 39 30 29 35 36 30 29 27 23 22 23 22 21 22 24 26 25 25
45 50 44 41 36 38 37 36 24 31 48 61 67 79 84 89 90 88 84 75 69 69 79 92 90 77 65 53 46 42 33 29 31 33 30 29 27 25 25 25 25 25 25 25 27 26 26
43 48 48 49 51 44 42 48 47 47 51 61 82 79 82 89 90 86 79 74 66 73 90 86 85 72 62 48 47 43 35 31 28 28 30 29 27 26 26 27 29 27 25 23 25 27 23
36 44 51 48 51 64 66 70 68 69 56 59 74 81 81 83 85 84 81 75 70 82 90 93 88 68 58 47 43 42 38 31 27 25 25 25 27 30 32 30 33 22 22 21 18 22 21
30 35 43 49 55 57 72 77 80 74 68 65 73 80 82 87 79 81 88 74 75 84 89 90 83 67 54 45 40 41 38 33 26 24 25 25 30 34 31 27 22 20 19 17 19 22 22
23 27 36 42 49 58 65 75 79 78 73 71 74 86 88 91 87 90 82 75 79 83 87 85 73 59 49 43 39 39 37 34 29 29 26 29 36 31 28 24 22 21 19 19 19 22 24
21 23 27 34 41 50 60 66 76 81 78 74 80 84 91 92 89 89 84 85 81 81 74 73 67 60 49 42 42 41 38 37 34 33 30 31 30 28 26 26 24 27 20 23 25 27 27
40 20 23 25 31 40 48 58 68 76 75 76 77 79 81 87 81 78 78 78 81 79 80 80 73 60 49 44 42 41 39 38 37 36 33 33 30 27 26 29 25 19 28 30 33 32 28
44 41 19 23 23 28 36 43 49 55 62 64 69 73 77 76 77 73 66 68 73 70 85 76 71 57 50 45 41 40 40 38 40 38 30 35 33 30 28 29 29 28 31 34 37 40 40
41 42 42 18 21 23 24 30 39 46 51 55 58 59 65 67 65 60 59 62 61 65 82 73 63 57 49 45 42 41 40 37 38 35 36 35 34 31 31 31 31 32 36 35 39 42 40
31 45 44 41 18 19 21 22 27 34 42 48 52 58 60 60 60 58 59 57 60 71 64 63 64 56 51 47 42 38 39 38 34 34 35 31 30 31 31 34 36 35 32 36 33 40 35
28 35 48 48 42 17 18 19 20 24 32 37 42 45 49 53 58 59 61 57 64 70 67 60 56 51 53 47 44 40 36 40 35 30 37 32 29 32 34 37 37 41 34 39 24 31 29
27 30 36 48 48 46 18 16 19 19 22 28 32 36 40 44 47 51 50 64 64 63 58 57 52 51 50 47 44 42 40 38 36 33 29 34 37 38 38 40 38 43 43 34 39 47 44
25 28 29 33 44 48 47 25 15 19 20 20 24 28 32 34 36 41 48 55 55 54 53 51 48 47 49 49 45 41 40 38 37 38 35 34 41 41 41 40 41 39 35 36 40 27 25
22 25 29 29 31 39 48 45 31 16 20 21 21 23 25 27 27 29 42 46 47 47 46 45 46 47 46 47 45 45 41 39 36 38 38 38 34 43 40 38 36 40 41 41 35 33 33
20 21 25 28 28 30 35 45 43 35 17 19 22 24 20 20 21 27 32 31 29 31 34 37 37 37 39 40 40 40 38 38 36 35 37 36 37 43 36 34 34 34 35 35 35 30 44
20 19 21 24 26 27 28 32 41 41 38 27 18 22 21 18 25 31 30 30 29 31 32 31 32 31 32 34 34 34 33 33 31 30 30 28 28 29 21 28 36 38 36 36 35 36 44
20 18 17 22 24 25 25 27 29 37 41 39 35 25 19 19 23 26 29 31 32 31 31 32 31 29 29 29 28 29 29 28 28 27 28 28 31 23 18 15 27 35 35 37 38 48 40
21 19 18 18 22 24 24 24 27 29 32 39 38 44 37 25 25 25 26 27 28 28 29 29 29 28 28 30 30 31 30 33 32 33 32 31 31 34 30 30 29 29 31 40 44 39 38
22 19 18 17 17 23 23 23 24 26 30 30 37 42 43 47 34 23 23 26 25 26 25 25 25 25 27 26 25 29 29 31 30 36 35 36 36 39 40 32 38 40 37 37 38 40 41
22 20 18 17 16 19 22 21 23 24 26 30 32 36 43 46 48 44 37 29 24 25 24 25 25 26 26 25 25 25 25 26 27 31 35 37 40 41 41 37 38 32 30 33 35 35 34
24 22 20 18 16 17 20 21 22 23 25 26 29 31 34 43 49 48 49 46 43 36 30 27 28 27 24 24 24 23 25 26 29 32 35 41 43 45 48 38 31 20 25 27 31 32 35
24 24 22 20 18 18 19 21 22 23 24 26 27 29 31 35 42 44 48 51 53 52 53 50 48 39 33 29 30 26 25 27 33 35 37 39 42 44 47 51 34 25 28 31 36 37 40
26 25 24 23 21 20 21 23 23 23 25 26 28 28 30 32 35 36 43 50 52 51 54 57 52 50 50 53 51 41 36 30 41 46 48 47 50 51 60 61 47 35 44 48 51 53 49
28 27 26 25 25 25 25 25 26 26 27 28 30 32 33 33 35 35 39 42 45 51 53 54 58 61 64 65 61 60 56 50 47 53 69 72 74 75 77 79 67 56 51 53 54 53 54
34 30 28 28 28 28 28 29 31 31 32 33 34 35 37 39 39 42 41 41 43 45 51 54 57 57 59 61 60 59 61 57 58 55 64 71 75 74 73 77 72 51 51 52 54 53 52
41 36 32 33 31 32 35 37 36 38 38 38 40 41 43 44 45 46 47 47 48 50 49 52 53 53 56 60 61 62 62 62 59 58 61 62 61 67 65 59 50 52 52 52 53 51 48

GFSGBSN_prec_cthk_132.txt.gz
RH
36 36 37 41 45 45 27 21 31 48 70 75 74 79 92 92 94 87 88 80 80 74 73 64 76 85 77 52 43 32 28 29 26 21 20 20 20 18 17 17 17 18 18 17 18 18 18
42 40 40 43 48 41 33 26 45 61 68 79 81 80 81 92 96 94 93 89 75 72 83 77 80 89 73 51 43 34 29 30 34 25 21 20 19 17 16 17 16 17 17 17 17 18 19
43 43 47 49 47 45 44 39 46 63 66 79 82 85 95 97 96 95 89 86 70 71 83 79 84 79 71 54 44 35 29 32 36 32 22 21 18 16 17 16 17 16 17 18 18 19 19
41 46 45 55 63 64 58 60 49 63 73 77 78 87 88 97 95 91 82 72 68 70 82 95 86 71 66 53 45 36 30 34 36 34 28 21 20 17 18 18 17 16 17 18 20 21 21
37 43 47 52 60 70 66 64 52 57 73 73 77 81 86 89 91 87 80 74 70 65 74 88 88 64 64 52 46 37 31 31 32 31 29 26 23 21 21 19 19 18 20 19 22 27 27
31 38 46 53 57 71 71 61 62 64 68 75 82 80 82 84 85 83 73 66 69 69 79 84 79 63 58 52 47 39 32 28 29 30 28 26 26 28 27 26 33 22 22 24 24 28 26
25 29 37 47 56 62 72 65 67 70 72 79 81 79 72 77 82 78 73 63 70 77 79 85 82 69 56 49 46 40 33 27 26 29 29 30 36 36 31 28 24 24 25 24 24 24 20
21 26 29 35 50 59 64 71 70 72 75 85 85 80 69 72 80 75 71 74 75 82 81 75 70 63 55 47 43 41 33 28 26 29 32 35 41 38 35 32 28 24 22 21 17 20 19
37 21 24 28 36 48 58 65 66 74 76 80 79 79 78 76 78 73 73 77 79 76 70 70 62 61 51 48 45 41 33 29 26 28 27 31 35 34 31 27 23 22 19 20 21 20 20
48 29 22 24 28 36 45 53 59 62 68 71 74 77 76 80 80 78 74 71 77 73 75 69 62 57 50 46 45 41 36 31 29 29 30 29 28 26 24 25 21 18 25 24 25 24 25
44 47 25 20 24 27 35 42 50 54 59 61 67 68 70 72 76 76 76 73 72 69 79 67 60 52 50 47 42 42 39 36 35 33 30 31 29 24 23 27 24 24 26 28 30 32 32
35 47 47 21 19 21 26 32 39 44 50 57 62 64 63 62 68 68 68 69 65 68 76 63 56 53 49 47 45 43 42 37 36 33 32 33 31 29 28 29 27 29 31 32 33 32 39
29 36 48 51 22 18 20 22 29 35 40 46 53 60 61 60 56 56 58 58 66 69 61 57 55 48 48 46 45 42 44 41 36 47 43 30 31 32 31 31 33 33 30 41 38 43 30
26 28 35 50 55 26 17 19 20 26 32 36 41 48 56 56 56 53 50 50 64 63 59 55 51 47 45 43 43 40 39 39 36 30 34 36 37 32 34 34 33 33 29 35 30 27 20
22 27 29 35 48 54 30 17 19 20 22 26 30 36 46 49 51 49 44 55 57 52 52 51 48 46 45 42 38 36 36 35 36 32 29 36 39 35 34 36 34 35 33 29 34 37 35
18 23 26 29 33 46 50 32 16 20 21 21 24 28 32 38 43 44 47 49 49 49 47 45 41 41 40 41 37 34 33 33 33 32 28 25 38 36 38 37 37 37 32 32 31 29 22
19 17 22 24 27 31 43 46 33 17 21 22 22 26 26 27 31 37 50 48 48 47 45 42 41 41 40 40 38 36 33 34 31 34 31 29 28 40 39 38 33 36 32 31 28 22 22
20 18 17 21 23 25 29 37 43 38 21 20 22 23 20 20 24 27 36 38 39 40 42 41 40 40 40 40 38 36 34 33 33 33 34 34 32 36 32 32 32 32 30 26 21 24 29
21 19 16 18 21 21 23 26 31 42 40 30 18 20 20 19 27 29 28 27 28 29 31 32 32 32 33 33 34 34 33 35 34 32 30 28 25 24 22 29 32 31 30 29 26 26 30
22 20 17 15 18 20 20 22 24 29 36 38 37 24 17 19 23 24 27 30 32 32 31 30 30 30 31 29 29 31 31 31 31 28 27 23 22 19 13 13 21 28 29 29 27 35 21
22 22 19 15 15 18 19 19 22 23 26 30 37 43 38 22 20 21 23 26 29 28 29 29 28 28 27 26 27 27 28 30 30 31 29 28 28 28 22 22 22 22 22 31 34 28 28
23 22 21 17 14 15 18 18 19 22 24 25 28 35 42 46 42 21 20 23 23 25 25 26 26 26 26 25 24 25 27 29 28 33 32 32 33 33 34 25 29 33 30 31 31 32 31
24 24 22 19 16 14 16 18 17 20 23 24 25 28 31 43 46 44 44 35 23 22 24 24 23 24 26 26 26 27 27 27 28 31 33 34 35 38 31 30 32 26 23 27 30 29 29
25 25 23 20 18 16 15 17 17 18 20 23 24 25 27 32 35 40 46 48 50 46 36 30 27 25 23 23 23 24 25 28 29 32 34 35 36 38 38 30 29 20 23 25 28 28 30
26 26 24 22 20 18 17 17 18 19 20 21 24 25 27 28 30 30 38 46 51 52 55 56 56 51 45 33 28 28 25 30 33 34 36 37 36 35 38 36 25 28 32 30 32 35 41
29 28 27 24 22 21 20 19 19 19 20 21 24 26 28 30 31 30 30 35 41 46 49 53 53 56 54 49 51 45 41 36 38 46 46 49 48 47 51 53 45 38 45 48 52 52 54
34 33 30 27 25 23 24 23 22 22 23 24 25 27 30 33 35 34 37 39 36 37 41 47 55 56 56 58 57 55 54 53 49 51 62 65 64 64 66 66 55 54 53 53 54 53 56
40 38 36 32 30 26 27 27 28 29 27 26 27 29 32 34 38 41 44 42 43 44 42 44 47 51 55 56 53 49 51 51 52 50 59 61 67 69 72 74 71 58 55 52 53 53 53
47 43 42 40 37 36 31 33 34 36 33 31 31 33 36 42 47 49 50 48 47 47 48 50 50 48 49 49 50 53 54 57 55 50 53 52 51 55 56 59 56 57 56 55 56 55 54